Location: Heidgraben
(53.7081°N, 9.6576°E)
Time: 20:58:49
(UTC+00:00)

USA 81 - Pass Details

Date: 05 July 2020
Orbit: 786 x 788 km, 85.0° (Epoch: 17 July)

Event Time Altitude Azimuth Distance (km) Brightness Sun altitude
Exits shadow 21:19:52 - 190° (S) 2,938 6.6 -8.9°
Reaches altitude 10° 21:21:22 10° 192° (SSW) 2,344 6.1 -9.0°
Maximum altitude 21:26:38 77° 278° (W) 815 4.2 -9.4°
Drops below altitude 10° 21:31:57 10° 5° (N) 2,361 7.5 -9.7°
Sets 21:34:20 0° 7° (N) 3,294 8.3 -9.9°
